1998-067UY

Last updated on Wed Feb 01 2023 00:03:43 GMT+0000 (Coordinated Universal Time)

1 55181U 98067UY 23031.51436527 .00069897 00000+0 10405-2 0 9992 2 55181 51.6400 285.0659 0004318 255.6043 104.4469 15.54470765 3919

Satellite not in orbit